Regional Weather Roundup
Issued by NWS Midland/Odessa, TX

Skip options and go directly to product.
Home | Oldest Version | Previous Version | Current Version | All | Graphics & Text | Save Text | Print | Product List | Glossary On

Skip product version selection by date and time.   
456
ASUS44 KMAF 240210
RWRMAF
MIDLAND AREA WEATHER ROUNDUP
NATIONAL WEATHER SERVICE MIDLAND TX
900 PM CDT WED JUL 23 2014

...IN SOUTHWEST TEXAS AND SOUTHEAST NEW MEXICO...

CITY           SKY/WX    TMP DP  RH WIND       PRES   REMARKS
ALPINE         CLEAR     83  51  32 E9        30.26R
ANDREWS        FAIR      91  49  23 SE10      30.13R
ARTESIA        CLEAR     91  48  22 E5        30.13S
BIG SPRING     CLEAR     94  52  23 NE9       30.12R
CARLSBAD       PTCLDY    94  42  16 SE8       30.10R
DRYDEN           N/A     96  57  27 SE8       30.02S
FORT STOCKTON  CLEAR     91  53  27 SE12      30.10R
GUAD PASS      CLEAR     80  45  28 E14       30.29R
HOBBS          CLEAR     90  48  24 E9        30.17R
MARFA          CLEAR     81  52  36 E9        30.25R
MIDLAND AIRPK  MOCLDY    87  68  52 CALM      30.12R
MIDLAND INTL   PTCLDY    91  56  30 E5        30.10S
ODESSA         PTCLDY    92  50  23 E8        30.11R
PECOS          CLEAR     92  53  26 E7        30.06R
PRESIDIO       FAIR      94  48  21 MISG      30.03R
SEMINOLE       CLEAR     90  49  24 E8        30.16R
SNYDER         CLEAR     91  59  33 E8        30.12R
WINK           PTCLDY    95  51  22 E9        30.06R
$$
...OTHER STATIONS IN TEXAS...

CITY           SKY/WX    TMP DP  RH WIND       PRES   REMARKS
ABILENE        PTCLDY    92  63  38 NE3       30.07R
AMARILLO       CLEAR     83  63  50 SE7       30.19R
AUSTIN         MOCLDY    87  69  54 E8        29.99R
BROWNSVILLE    CLEAR     83  72  69 SE7       29.96R
CORPUS CHRISTI PTCLDY    84  73  69 SE13      29.96R
DALLAS FTW     CLOUDY    87  70  56 E17       30.03R
DEL RIO        CLEAR     94  61  33 SE5       29.95R
EL PASO        PTCLDY    91  44  19 E12       30.12S
HOUSTON INT    MOCLDY    84  71  65 NE7       29.99R
LUBBOCK        PTCLDY    85  59  41 E9        30.18R
SAN ANGELO     CLEAR     90  63  40 E8        30.06S
SAN ANTONIO    MOCLDY    91  70  49 NE5       29.98R
WACO           CLOUDY    87  68  52 E9        30.04R
WICHITA FALLS  NOT AVBL
$$
...OTHER LOCATIONS IN NEW MEXICO...

CITY           SKY/WX    TMP DP  RH WIND       PRES   REMARKS
ALAMAGORDO     PTCLDY    88  41  19 SE14      30.17S
ALBUQUERQUE    MOCLDY    84  54  35 N7        30.27S
CANNON AFB     CLEAR     82  60  46 E6        30.24R
CLOVIS         NOT AVBL
HOLLOMAN AFB   PTCLDY    91  45  19 E12       30.14R
ROSWELL        CLEAR     90  50  25 E7        30.14S
RUIDOSO        CLEAR     73  43  33 MISG      30.43S
SANTA FE       MOCLDY    73  55  53 SE3       30.37S
TRUTH OR CONSE LGT RAIN  83  57  41 CALM      30.21R
TUCUMCARI      CLEAR     88  52  29 S9        30.19R
$$

USA.gov is the U.S. government's official web portal to all federal, state and local government web resources and services.